[[{"header":{"parameterUnit":"m.s-1","parameterCategory":1,"la1":30.2992,"la2":30.254,"lo1":-89.0895,"lo2":-89.0443,"dy":0.0025,"dx":0.0025,"nx":19,"ny":19,"refTime":"2026-04-10T09:00:00:Z","depth":0,"parameterNumber":2,"parameterNumberName":"U-component_of_WINDS"},"data":[0,0,0,-3.5436,-3.5437,-3.5476,-3.5476,-3.5548,-3.5549,0,0,0,0,0,0,0,0,0,0,0,-3.5436,-3.5437,-3.5435,-3.5437,-3.5476,-3.5476,-3.5548,-3.5549,0,0,0,0,0,0,0,0,0,0,0,-3.5436,-3.5437,-3.5438,-3.5437,-3.5476,-3.5476,-3.5548,-3.551,0,0,0,0,0,0,0,0,0,0,-3.5468,-3.5481,-3.5437,-3.5438,-3.5437,-3.5476,-3.5476,-3.5508,-3.5513,-3.5539,0,-3.5566,0,-3.5559,-3.5555,-3.5555,0,0,0,-3.5427,-3.5478,-3.5477,-3.5438,-3.5438,-3.5476,-3.5456,-3.551,-3.5515,-3.5545,-3.5567,-3.5569,-3.556,-3.5555,-3.5556,-3.5741,-3.5742,0,0,-3.5425,-3.545,-3.5474,-3.5481,-3.5476,-3.5455,-3.5457,-3.5513,-3.5538,-3.5567,-3.557,-3.5561,-3.5556,-3.5557,-3.5739,-3.5741,0,0,0,-3.5425,-3.5449,-3.5446,-3.5479,-3.5484,-3.5456,-3.5459,-3.5536,-3.5533,-3.5571,-3.5562,-3.5557,-3.5558,-3.5738,-3.574,-3.5829,0,0,0,-3.5423,-3.5449,-3.5446,-3.5462,-3.5484,-3.551,-3.5481,-3.5529,-3.5534,-3.5562,-3.5557,-3.5559,-3.5736,-3.5739,-3.5823,-3.5866,0,0,0,-3.5429,-3.545,-3.546,-3.5463,-3.5481,-3.5509,-3.5509,-3.5529,-3.553,-3.5555,-3.5559,-3.5735,-3.5739,-3.5818,-3.5858,-3.5921,0,0,0,-3.5443,-3.5538,-3.5462,-3.5564,-3.5481,-3.5564,-3.5508,-3.5569,-3.5601,-3.5557,-3.5737,-3.574,-3.5817,-3.5852,-3.5916,-3.5979,-3.6007,0,0,-3.5577,-3.5555,-3.5613,-3.5546,-3.5649,-3.5556,-3.5672,-3.5678,-3.5657,-3.5714,-3.5718,-3.5825,-3.5857,-3.592,-3.6162,-3.6185,0,0,0,-3.5664,-3.5706,-3.5728,-3.5761,-3.5769,-3.5778,-3.5764,-3.5766,-3.5813,-3.5692,-3.5865,-3.5883,-3.592,-3.5948,-3.5968,-3.5997,-3.5755,-3.5754,-3.5754,-3.5888,-3.5857,-3.5952,-3.5927,-3.596,-3.5945,-3.5968,-3.5969,-3.5928,-3.597,-3.5985,-3.6136,-3.617,-3.6185,-3.6216,-3.6017,-3.6017,-3.6018,-3.6018,-3.608,-3.6134,-3.6079,-3.6151,-3.6119,-3.6179,-3.6169,-3.6138,-3.6189,-3.6121,-3.6151,-3.6078,-3.6211,-3.6236,-3.6024,-3.6023,-3.6022,-3.6022,-3.6021,-3.6221,-3.6242,-3.6244,-3.6289,-3.6327,-3.6299,-3.6351,-3.6319,-3.629,-3.632,-3.6333,-3.6332,-3.6325,-3.6329,-3.633,-3.633,-3.6331,-3.6331,-3.6331,-3.6367,-3.6366,-3.6414,-3.6432,-3.6449,-3.6468,-3.6456,-3.6472,-3.6481,-3.6454,-3.6454,-3.6409,-3.623,-3.6185,-3.6339,-3.6338,-3.6337,-3.6336,-3.6336,-3.657,-3.6519,-3.6593,-3.6611,-3.6629,-3.6669,-3.6629,-3.6665,-3.6674,-3.6701,-3.665,-3.6524,-3.6499,-3.6483,-3.6445,-3.6657,-3.6657,-3.6657,-3.6657,-3.6688,-3.6673,-3.6742,-3.6772,-3.6798,-3.677,-3.6855,-3.6847,-3.6831,-3.6834,-3.68,-3.6748,-3.6733,-3.6717,-3.6696,-3.666,-3.6922,-3.6922,-3.6922,-3.6811,-3.6797,-3.6875,-3.6859,-3.6871,-3.6883,-3.6961,-3.6998,-3.6969,-3.6933,-3.6837,-3.6825,-3.6741,-3.6716,-3.6674,-3.6643,-3.6576,0,0]},{"header":{"parameterUnit":"m.s-1","parameterCategory":1,"la1":30.2992,"la2":30.254,"lo1":-89.0895,"lo2":-89.0443,"dy":0.0025,"dx":0.0025,"nx":19,"ny":19,"refTime":"2026-04-10T09:00:00:Z","depth":0,"parameterNumber":3,"parameterNumberName":"V-component_of_WINDS"},"data":[0,0,0,2.1327,2.1328,2.1377,2.1378,2.1426,2.1426,0,0,0,0,0,0,0,0,0,0,0,2.1305,2.1305,2.1327,2.1328,2.1377,2.1378,2.1426,2.1426,0,0,0,0,0,0,0,0,0,0,0,2.1305,2.1305,2.1305,2.1329,2.1377,2.1378,2.1426,2.1394,0,0,0,0,0,0,0,0,0,0,2.1348,2.1321,2.1305,2.1305,2.1329,2.1377,2.1378,2.1392,2.1396,2.1398,0,2.1399,0,2.1414,2.1429,2.1429,0,0,0,2.1334,2.1318,2.1338,2.1305,2.1329,2.1377,2.1357,2.1394,2.1398,2.1402,2.14,2.1402,2.1414,2.1429,2.1429,2.1429,2.1429,0,0,2.1331,2.131,2.1336,2.134,2.1333,2.1355,2.1358,2.1397,2.1392,2.14,2.1404,2.1415,2.1429,2.143,2.1429,2.1429,0,0,0,2.132,2.1307,2.1327,2.1338,2.1348,2.1356,2.136,2.1391,2.1399,2.1404,2.1416,2.1429,2.143,2.1429,2.1429,2.1396,0,0,0,2.1318,2.1301,2.1326,2.1313,2.1347,2.137,2.1352,2.1396,2.1401,2.1416,2.1429,2.143,2.143,2.1429,2.1398,2.1383,0,0,0,2.1305,2.1299,2.1304,2.1312,2.1332,2.137,2.1381,2.1398,2.1408,2.1429,2.143,2.143,2.1429,2.1399,2.1386,2.1377,0,0,0,2.1283,2.1273,2.1303,2.1296,2.1332,2.135,2.1381,2.1395,2.1409,2.143,2.143,2.1429,2.1399,2.1387,2.1378,2.1365,2.1358,0,0,2.1258,2.1269,2.1267,2.1295,2.1303,2.1344,2.1347,2.1379,2.14,2.1418,2.1418,2.1397,2.1386,2.1377,2.1327,2.1321,0,0,0,2.1252,2.125,2.1256,2.127,2.1295,2.1316,2.1351,2.1363,2.138,2.1405,2.1393,2.1387,2.1383,2.1377,2.1372,2.137,2.1426,2.1426,2.1426,2.1184,2.1213,2.1211,2.1246,2.1259,2.1296,2.1308,2.1331,2.1355,2.1352,2.1357,2.1323,2.1316,2.1312,2.131,2.1353,2.1353,2.1353,2.1353,2.1149,2.115,2.1186,2.1196,2.1227,2.1235,2.1271,2.1288,2.13,2.1321,2.1319,2.1338,2.1305,2.1304,2.1351,2.1351,2.1351,2.1352,2.1352,2.1107,2.1113,2.1129,2.1153,2.1167,2.1203,2.1214,2.1241,2.1267,2.1265,2.1273,2.1274,2.1277,2.1267,2.1267,2.1267,2.1267,2.1267,2.1267,2.1056,2.1076,2.1082,2.111,2.1123,2.1144,2.1182,2.1195,2.1216,2.1235,2.1235,2.1259,2.1297,2.1305,2.1265,2.1265,2.1266,2.1266,2.1266,2.1008,2.1024,2.1033,2.1046,2.1082,2.1095,2.1131,2.1155,2.117,2.1174,2.12,2.1224,2.1236,2.124,2.1247,2.1194,2.1194,2.1194,2.1194,2.0971,2.0982,2.0998,2.1017,2.1039,2.1073,2.1083,2.1113,2.1146,2.1157,2.1169,2.1181,2.1184,2.1195,2.12,2.1207,2.1144,2.1144,2.1144,2.0943,2.0957,2.096,2.0994,2.1025,2.105,2.106,2.1079,2.112,2.1143,2.1166,2.1168,2.1188,2.1193,2.1214,2.1221,2.1234,0,0]}]]